Location: Bay Ridge
(40.6340°N, 74.0146°W)
Time: 19:28:03
(UTC+00:00)

Cosmos 1437 - Pass Details

Date: 15 November 2019
Orbit: 381 x 384 km, 81.2° (Epoch: 05 December)

Event Time Altitude Azimuth Distance (km) Brightness Sun altitude
Rises 10:52:03 0° 186° (S) 2,242 6.6 -9.8°
Reaches altitude 10° 10:54:01 10° 185° (S) 1,395 5.5 -9.5°
Maximum altitude 10:57:02 79° 99° (E) 394 2.7 -8.9°
Drops below altitude 10° 11:00:06 10° 12° (NNE) 1,410 5.4 -8.3°
Sets 11:02:06 0° 11° (N) 2,270 6.4 -8.0°
